Location: Be?i?
(36.9044°N, 30.1006°E)
Time: 11:30:14
(UTC+00:00)

Cosmos 1452 Rocket - Pass Details

Date: 05 August 2024
Orbit: 764 x 773 km, 74.1° (Epoch: 08 September)

Event Time Altitude Azimuth Distance (km) Brightness Sun altitude
Exits shadow 18:45:25 34° 113° (ESE) 1,248 4.1 -18.6°
Maximum altitude 18:45:56 35° 101° (E) 1,229 4.1 -18.7°
Drops below altitude 10° 18:50:39 10° 37° (NE) 2,314 6.0 -19.5°
Sets 18:53:12 0° 28° (NNE) 3,246 6.9 -19.8°
